| time (UTC) | temp C | wind direction | speed KPH | gust KPH | rain 1hr cm | rain 24hr cm | rain mn cm | humidity % | barometer mb |
| 20260503224546 | 15 | 14 | 9.7 | 25.7 | 0.00 | 0.00 | 0.00 | 28 | 1013.5 |
| 20260503223048 | 16 | 26 | 6.4 | 25.7 | 0.00 | 0.00 | 0.00 | 27 | 1013.5 |
| 20260503221547 | 16 | 21 | 8.0 | 29.0 | 0.00 | 0.00 | 0.00 | 28 | 1013.7 |
| 20260503220049 | 16 | 19 | 12.9 | 27.4 | 0.00 | 0.00 | 0.00 | 28 | 1013.8 |
| 20260503214547 | 16 | 17 | 16.1 | 24.1 | 0.00 | 0.00 | 0.00 | 27 | 1013.7 |
| 20260503213047 | 16 | 17 | 14.5 | 38.6 | 0.00 | 0.00 | 0.00 | 27 | 1014.1 |
| 20260503211556 | 16 | 15 | 11.3 | 32.2 | 0.00 | 0.00 | 0.00 | 28 | 1013.8 |
| 20260503210047 | 16 | 18 | 11.3 | 32.2 | 0.00 | 0.00 | 0.00 | 27 | 1013.9 |
| 20260503204555 | 16 | 15 | 9.7 | 22.5 | 0.00 | 0.00 | 0.00 | 27 | 1013.8 |
| 20260503203051 | 16 | 21 | 14.5 | 30.6 | 0.00 | 0.00 | 0.00 | 27 | 1014.0 |
| 20260503201547 | 16 | 19 | 12.9 | 32.2 | 0.00 | 0.00 | 0.00 | 27 | 1014.0 |
| 20260503200050 | 16 | 19 | 8.0 | 27.4 | 0.00 | 0.00 | 0.00 | 28 | 1014.2 |
| 20260503194549 | 15 | 19 | 8.0 | 25.7 | 0.00 | 0.00 | 0.00 | 26 | 1014.4 |
| 20260503193102 | 16 | 17 | 11.3 | 25.7 | 0.00 | 0.00 | 0.00 | 28 | 1014.5 |
| 20260503191550 | 15 | 15 | 3.2 | 24.1 | 0.00 | 0.00 | 0.00 | 30 | 1014.6 |
| 20260503184543 | 15 | 22 | 12.9 | 30.6 | 0.00 | 0.00 | 0.00 | 28 | 1015.1 |
| 20260503183057 | 15 | 15 | 6.4 | 29.0 | 0.00 | 0.00 | 0.00 | 29 | 1015.1 |
| 20260503181541 | 15 | 19 | 9.7 | 32.2 | 0.00 | 0.00 | 0.00 | 28 | 1015.2 |
| 20260503180056 | 14 | 17 | 8.0 | 25.7 | 0.00 | 0.00 | 0.00 | 28 | 1015.4 |
| 20260503174550 | 14 | 13 | 9.7 | 27.4 | 0.00 | 0.00 | 0.00 | 28 | 1015.5 |
| 20260503173103 | 13 | 19 | 8.0 | 24.1 | 0.00 | 0.00 | 0.00 | 29 | 1015.3 |
| 20260503171550 | 12 | 18 | 12.9 | 40.2 | 0.00 | 0.00 | 0.00 | 30 | 1015.8 |
| 20260503081550 | 5 | 132 | 6.4 | 17.7 | 0.00 | 0.00 | 0.00 | 61 | 1015.5 |
| 20260503071605 | 5 | 123 | 6.4 | 14.5 | 0.00 | 0.00 | 0.00 | 62 | 1015.0 |
| 20260503054547 | 5 | 125 | 0.0 | 8.0 | 0.00 | 0.00 | 0.00 | 67 | 1014.9 |
| 20260503053052 | 5 | 134 | 1.6 | 11.3 | 0.00 | 0.00 | 0.00 | 67 | 1015.1 |
| 20260503051556 | 5 | 142 | 1.6 | 14.5 | 0.00 | 0.00 | 0.00 | 67 | 1015.1 |
| 20260503050052 | 5 | 155 | 1.6 | 6.4 | 0.00 | 0.00 | 0.00 | 68 | 1015.1 |
| 20260503044544 | 5 | 135 | 1.6 | 6.4 | 0.00 | 0.00 | 0.00 | 68 | 1015.2 |
| 20260503043052 | 5 | 108 | 1.6 | 8.0 | 0.00 | 0.00 | 0.00 | 69 | 1015.2 |
| 20260503041541 | 5 | 166 | 0.0 | 4.8 | 0.00 | 0.00 | 0.00 | 70 | 1015.3 |
| 20260503040040 | 5 | 183 | 0.0 | 3.2 | 0.00 | 0.00 | 0.00 | 70 | 1015.3 |
| 20260503034549 | 5 | 0 | 0.0 | 1.6 | 0.00 | 0.00 | 0.00 | 69 | 1015.4 |
| 20260503033046 | 5 | 0 | 0.0 | 1.6 | 0.00 | 0.00 | 0.00 | 67 | 1015.2 |
| 20260503031544 | 6 | 0 | 0.0 | 1.6 | 0.00 | 0.00 | 0.00 | 65 | 1015.2 |
| 20260503030046 | 6 | 0 | 0.0 | 3.2 | 0.00 | 0.00 | 0.00 | 64 | 1015.5 |
| 20260503024557 | 7 | 0 | 0.0 | 1.6 | 0.00 | 0.00 | 0.00 | 61 | 1015.6 |
| 20260503023048 | 7 | 0 | 0.0 | 1.6 | 0.00 | 0.00 | 0.00 | 59 | 1015.5 |
| 20260503021551 | 7 | 0 | 1.6 | 6.4 | 0.00 | 0.00 | 0.00 | 55 | 1015.5 |
| 20260503020052 | 7 | 360 | 0.0 | 14.5 | 0.00 | 0.00 | 0.00 | 54 | 1015.5 |
| 20260503014620 | 7 | 360 | 1.6 | 4.8 | 0.00 | 0.00 | 0.00 | 55 | 1015.3 |
| 20260503013049 | 8 | 0 | 1.6 | 8.0 | 0.00 | 0.00 | 0.00 | 55 | 1015.1 |
| 20260503011601 | 8 | 360 | 3.2 | 12.9 | 0.00 | 0.00 | 0.00 | 56 | 1015.0 |
| 20260503010054 | 8 | 0 | 0.0 | 4.8 | 0.00 | 0.00 | 0.00 | 56 | 1014.6 |
| 20260503004559 | 8 | 360 | 0.0 | 8.0 | 0.00 | 0.00 | 0.00 | 53 | 1014.4 |
| 20260503003058 | 9 | 0 | 0.0 | 4.8 | 0.00 | 0.00 | 0.00 | 52 | 1014.1 |
| 20260503001544 | 9 | 360 | 3.2 | 8.0 | 0.00 | 0.00 | 0.00 | 51 | 1014.0 |
| 20260503000055 | 10 | 360 | 6.4 | 16.1 | 0.00 | 0.00 | 0.00 | 50 | 1013.8 |
| 20260502234552 | 10 | 360 | 3.2 | 17.7 | 0.00 | 0.00 | 0.00 | 48 | 1013.6 |
| 20260502233047 | 10 | 44 | 3.2 | 9.7 | 0.00 | 0.00 | 0.00 | 47 | 1013.4 |
| 20260502231549 | 11 | 57 | 4.8 | 11.3 | 0.00 | 0.00 | 0.00 | 44 | 1013.3 |
| 20260502230052 | 11 | 0 | 1.6 | 11.3 | 0.00 | 0.00 | 0.00 | 44 | 1013.2 |
| 20260502224604 | 11 | 43 | 1.6 | 9.7 | 0.00 | 0.00 | 0.00 | 43 | 1013.1 |